[[{"header":{"parameterUnit":"m.s-1","parameterCategory":1,"la1":30.2991,"la2":30.254,"lo1":-89.0895,"lo2":-89.0444,"dx":0.0017,"dy":0.0017,"nx":28,"ny":28,"refTime":"2022-11-05T15:00:00:Z","depth":0,"parameterNumber":2,"parameterNumberName":"U-component_of_WINDS"},"data":[0,0,0,0,0,0,0,0,0,0,0,0,0,0,0,0,0,0,0,0,0,0,0,0,0,0,0,0,0,0,0,0,0,0,0,0,0,0,0,0,0,0,0,0,0,0,0,0,0,0,0,0,0,0,0,0,0,0,-1.7298,-1.7299,0,-1.735,-1.7351,-1.7351,-1.7358,-1.7358,-1.7357,-1.7357,-1.7409,-1.741,-1.7412,0,0,0,0,0,0,0,0,0,0,0,0,0,-1.7202,-1.7204,-1.7298,-1.7299,-1.7299,-1.735,-1.7351,-1.7352,-1.7358,-1.7358,-1.7357,-1.7356,-1.7408,-1.741,-1.7412,0,0,0,0,0,0,0,0,0,0,0,0,0,-1.7248,-1.7204,-1.7298,-1.7309,-1.731,-1.735,-1.7351,-1.7352,-1.7358,-1.7358,-1.7357,-1.7356,-1.7407,-1.741,-1.7413,-1.7445,0,0,-1.7421,-1.7422,0,0,0,0,0,0,0,0,-1.7245,-1.7251,-1.7306,-1.7308,-1.731,-1.7347,-1.7336,-1.7383,-1.7359,-1.734,-1.7357,-1.7356,-1.7389,-1.7393,-1.7404,-1.7447,-1.7449,-1.7421,-1.7423,-1.7424,-1.7425,0,0,0,0,0,0,0,-1.7242,-1.7249,-1.7319,-1.7307,-1.7309,-1.731,-1.7316,-1.7345,-1.7368,-1.7342,-1.7342,-1.7348,-1.7389,-1.7402,-1.7405,-1.745,-1.7421,-1.7424,-1.7425,-1.7426,-1.7521,-1.7522,0,0,0,0,0,0,-1.7237,-1.7246,-1.7317,-1.732,-1.7275,-1.7313,-1.7319,-1.7336,-1.7368,-1.7372,-1.7349,-1.7349,-1.7397,-1.7402,-1.7407,-1.7446,-1.7424,-1.7427,-1.7428,-1.752,-1.7521,-1.7522,0,0,0,0,0,0,-1.7235,-1.7243,-1.7315,-1.7284,-1.7293,-1.7315,-1.7334,-1.7337,-1.7349,-1.7373,-1.7377,-1.7357,-1.7397,-1.7403,-1.7435,-1.7448,-1.7428,-1.7431,-1.7519,-1.752,-1.7521,-1.7524,0,0,0,0,0,0,-1.7232,-1.7243,-1.7255,-1.7284,-1.7294,-1.7342,-1.7335,-1.7339,-1.7354,-1.7354,-1.7382,-1.7386,-1.7397,-1.7431,-1.7438,-1.7451,-1.7433,-1.7518,-1.752,-1.7521,-1.7523,-1.7526,-1.7528,0,0,0,0,0,-1.7229,-1.7254,-1.7256,-1.7264,-1.7311,-1.7343,-1.7349,-1.7362,-1.7355,-1.7368,-1.7383,-1.7385,-1.7446,-1.7434,-1.7442,-1.7457,-1.7517,-1.7519,-1.7521,-1.7522,-1.7525,-1.7528,0,0,0,0,0,0,-1.7226,-1.7258,-1.7261,-1.7296,-1.7317,-1.7344,-1.7361,-1.7364,-1.7387,-1.7386,-1.74,-1.7406,-1.7437,-1.745,-1.7437,-1.7489,-1.7481,-1.7484,-1.7479,-1.7482,-1.7484,-1.748,-1.7435,0,0,0,0,0,-1.723,-1.7254,-1.728,-1.7309,-1.7319,-1.7338,-1.7353,-1.736,-1.7382,-1.7391,-1.7409,-1.7429,-1.7453,-1.7468,-1.7492,-1.7525,-1.7531,-1.7539,-1.7541,-1.7543,-1.7546,-1.7564,-1.7567,-1.7528,-1.7528,-1.7528,0,0,-1.7237,-1.7257,-1.7272,-1.7309,-1.7326,-1.735,-1.7346,-1.7371,-1.7389,-1.7395,-1.7426,-1.7439,-1.7464,-1.7496,-1.7512,-1.7508,-1.7558,-1.7546,-1.7547,-1.7548,-1.7566,-1.757,-1.7573,-1.7529,-1.7529,-1.7529,0,0,-1.7263,-1.7281,-1.7306,-1.7324,-1.735,-1.7363,-1.7369,-1.7396,-1.7405,-1.7437,-1.7441,-1.7462,-1.7503,-1.752,-1.7534,-1.7565,-1.7567,-1.7572,-1.7584,-1.7601,-1.7604,-1.7607,-1.7617,-1.7621,-1.7575,-1.7575,-1.7575,0,-1.7268,-1.7305,-1.7319,-1.7344,-1.736,-1.7367,-1.7393,-1.7409,-1.7441,-1.7451,-1.7447,-1.7498,-1.7515,-1.7551,-1.7559,-1.757,-1.7576,-1.7569,-1.7603,-1.7605,-1.7608,-1.7618,-1.7622,-1.7576,-1.7576,-1.7575,-1.7575,0,-1.7311,-1.7336,-1.7353,-1.7385,-1.7402,-1.7428,-1.7444,-1.7461,-1.7467,-1.7479,-1.7511,-1.7531,-1.7558,-1.7568,-1.7574,-1.7605,-1.7601,-1.76,-1.7592,-1.7612,-1.7622,-1.7626,-1.7576,-1.7576,-1.7576,-1.7576,0,0,-1.7336,-1.7374,-1.738,-1.7394,-1.7424,-1.7443,-1.7469,-1.7496,-1.7509,-1.7531,-1.7551,-1.7586,-1.7584,-1.76,-1.7608,-1.7623,-1.7646,-1.762,-1.762,-1.7623,-1.768,-1.768,-1.7684,-1.7648,-1.7648,-1.7649,-1.7677,0,-1.7364,-1.741,-1.7423,-1.7461,-1.7484,-1.7491,-1.7513,-1.7533,-1.7546,-1.7566,-1.758,-1.7604,-1.76,-1.761,-1.7625,-1.764,-1.7657,-1.7638,-1.7666,-1.7667,-1.7659,-1.769,-1.769,-1.7716,-1.7681,-1.7682,-1.7682,0,-1.7403,-1.7426,-1.7467,-1.7493,-1.7503,-1.7523,-1.7548,-1.7568,-1.7591,-1.7599,-1.7616,-1.7623,-1.7648,-1.764,-1.7674,-1.7661,-1.7673,-1.7682,-1.7683,-1.7686,-1.7675,-1.7692,-1.7725,-1.7728,-1.7689,-1.7688,-1.7688,0,-1.7416,-1.7458,-1.7487,-1.7499,-1.753,-1.7544,-1.7557,-1.7579,-1.7594,-1.7616,-1.7626,-1.7651,-1.7664,-1.7682,-1.7695,-1.7687,-1.7728,-1.7721,-1.7735,-1.7734,-1.7742,-1.7742,-1.7777,-1.7752,-1.7752,-1.7752,-1.7751,0,-1.7446,-1.7471,-1.7494,-1.7512,-1.7539,-1.7553,-1.758,-1.7593,-1.7612,-1.7633,-1.764,-1.7659,-1.7675,-1.7695,-1.7706,-1.7732,-1.7738,-1.7745,-1.7747,-1.7744,-1.7743,-1.7751,-1.7749,-1.7753,-1.7752,-1.7752,-1.7752,0,-1.7465,-1.7482,-1.7514,-1.7541,-1.7549,-1.7567,-1.759,-1.7607,-1.762,-1.7646,-1.7652,-1.7672,-1.7696,-1.7711,-1.7742,-1.7749,-1.7778,-1.778,-1.7771,-1.7771,-1.7784,-1.7782,-1.7825,-1.7831,-1.7803,-1.7803,-1.7804,0,-1.7483,-1.7502,-1.7531,-1.7546,-1.7559,-1.7582,-1.7598,-1.7613,-1.7628,-1.7655,-1.7669,-1.7694,-1.7715,-1.7753,-1.777,-1.7793,-1.7795,-1.7809,-1.7799,-1.7795,-1.7794,-1.7793,-1.7794,-1.781,-1.781,-1.7811,-1.7811,0,-1.7512,-1.7519,-1.7542,-1.7567,-1.7586,-1.7606,-1.7627,-1.7638,-1.7656,-1.7673,-1.7698,-1.7714,-1.7746,-1.777,-1.7795,-1.7808,-1.7812,-1.7814,-1.7818,-1.7814,-1.7808,-1.7811,-1.7774,-1.7813,-1.7812,-1.7812,-1.7812,-1.7812,-1.7531,-1.7548,-1.7571,-1.7595,-1.7612,-1.7631,-1.7648,-1.7663,-1.7685,-1.7712,-1.7719,-1.7746,-1.7767,-1.7801,-1.7814,-1.7834,-1.7832,-1.7839,-1.784,-1.7841,-1.7841,-1.7805,-1.7839,-1.7839,-1.7839,-1.7839,-1.7839,0,-1.756,-1.7575,-1.7597,-1.7626,-1.7645,-1.7648,-1.767,-1.7686,-1.7709,-1.7729,-1.7749,-1.7778,-1.7802,-1.782,-1.7844,-1.7857,-1.7859,-1.7862,-1.7861,-1.7864,-1.7842,-1.7836,-1.786,-1.786,-1.786,-1.786,-1.786,-1.786,-1.7577,-1.7605,-1.7615,-1.7652,-1.7667,-1.7693,-1.7706,-1.7723,-1.7738,-1.777,-1.779,-1.7802,-1.7821,-1.7846,-1.7868,-1.7873,-1.7881,-1.7883,-1.7888,-1.7868,-1.7865,-1.7863,-1.7857,-1.7885,-1.7885,-1.7908,-1.7908,-1.7908]},{"header":{"parameterUnit":"m.s-1","parameterCategory":1,"la1":30.2991,"la2":30.254,"lo1":-89.0895,"lo2":-89.0444,"dx":0.0017,"dy":0.0017,"nx":28,"ny":28,"refTime":"2022-11-05T15:00:00:Z","depth":0,"parameterNumber":3,"parameterNumberName":"V-component_of_WINDS"},"data":[0,0,0,0,0,0,0,0,0,0,0,0,0,0,0,0,0,0,0,0,0,0,0,0,0,0,0,0,0,0,0,0,0,0,0,0,0,0,0,0,0,0,0,0,0,0,0,0,0,0,0,0,0,0,0,0,0,0,1.6719,1.672,0,1.682,1.6821,1.6822,1.6876,1.6877,1.6877,1.6877,1.6981,1.6984,1.6987,0,0,0,0,0,0,0,0,0,0,0,0,0,1.6578,1.658,1.6719,1.672,1.6722,1.682,1.6821,1.6823,1.6876,1.6877,1.6877,1.6877,1.698,1.6984,1.6987,0,0,0,0,0,0,0,0,0,0,0,0,0,1.6655,1.6581,1.6719,1.676,1.6765,1.682,1.6821,1.6823,1.6876,1.6877,1.6877,1.6877,1.6979,1.6983,1.6987,1.7009,0,0,1.6999,1.7001,0,0,0,0,0,0,0,0,1.665,1.666,1.6753,1.6757,1.6763,1.6836,1.681,1.6885,1.6876,1.6834,1.6877,1.6877,1.6933,1.6941,1.6959,1.7014,1.7018,1.7,1.7002,1.7004,1.7005,0,0,0,0,0,0,0,1.6645,1.6656,1.6759,1.6754,1.676,1.6775,1.6786,1.6824,1.6881,1.6838,1.6842,1.6853,1.6936,1.6955,1.6962,1.702,1.7,1.7003,1.7006,1.7007,1.7103,1.7103,0,0,0,0,0,0,1.6633,1.6651,1.6756,1.6762,1.6706,1.6778,1.679,1.6812,1.6881,1.6892,1.6853,1.6855,1.6948,1.6957,1.6966,1.6999,1.7004,1.7008,1.701,1.7102,1.7103,1.7103,0,0,0,0,0,0,1.6629,1.6641,1.6752,1.6708,1.6723,1.678,1.6804,1.6814,1.6834,1.6892,1.6903,1.6862,1.6949,1.696,1.6999,1.7003,1.701,1.7013,1.7102,1.7102,1.7103,1.7063,0,0,0,0,0,0,1.6625,1.664,1.6647,1.6708,1.6725,1.6781,1.6804,1.6816,1.684,1.6845,1.6904,1.6914,1.695,1.6993,1.7003,1.7009,1.7016,1.7102,1.7102,1.7103,1.7064,1.7062,1.706,0,0,0,0,0,1.662,1.6631,1.6647,1.6659,1.6735,1.6781,1.6791,1.6832,1.684,1.685,1.6888,1.6912,1.7001,1.6996,1.7008,1.7016,1.7102,1.7102,1.7103,1.7065,1.7063,1.706,0,0,0,0,0,0,1.6568,1.6639,1.6658,1.6689,1.6729,1.679,1.6802,1.6827,1.6865,1.6867,1.6917,1.693,1.6965,1.6994,1.6987,1.7043,1.7055,1.7057,1.7022,1.702,1.7018,1.701,1.702,0,0,0,0,0,1.6561,1.6591,1.6652,1.6674,1.6693,1.6744,1.6766,1.6794,1.6837,1.6854,1.6896,1.6937,1.6976,1.6999,1.7037,1.7069,1.7085,1.7081,1.7079,1.7077,1.7079,1.7103,1.7102,1.7104,1.7104,1.7104,0,0,1.6545,1.6588,1.6604,1.6665,1.6699,1.6732,1.6758,1.679,1.6815,1.6859,1.6899,1.6931,1.6982,1.7018,1.7036,1.7044,1.7082,1.7077,1.7075,1.7078,1.7103,1.7103,1.7103,1.7104,1.7104,1.7104,0,0,1.6534,1.6568,1.6592,1.6626,1.6678,1.6713,1.6719,1.6778,1.6801,1.6842,1.6877,1.6909,1.6972,1.7008,1.7034,1.7042,1.7068,1.7053,1.7042,1.7065,1.7065,1.7065,1.7071,1.7072,1.7055,1.7055,1.7055,0,1.6508,1.6557,1.6601,1.6632,1.666,1.6703,1.6729,1.676,1.6822,1.6841,1.6848,1.6932,1.6969,1.7017,1.7019,1.7038,1.7049,1.7047,1.7061,1.7062,1.7063,1.7069,1.7071,1.7053,1.7053,1.7054,1.7054,0,1.6525,1.6559,1.6572,1.6632,1.6661,1.6689,1.674,1.6764,1.6791,1.6826,1.687,1.6916,1.6966,1.6979,1.7005,1.7032,1.7036,1.7051,1.7064,1.706,1.7067,1.707,1.705,1.7051,1.7052,1.7052,0,0,1.6481,1.6568,1.6572,1.6602,1.6665,1.6693,1.6725,1.6775,1.6797,1.6839,1.6869,1.6924,1.6941,1.6971,1.7002,1.7022,1.703,1.7036,1.7038,1.7036,1.7068,1.7056,1.7058,1.7047,1.7048,1.7048,1.7064,0,1.648,1.6539,1.6582,1.6626,1.666,1.6704,1.6733,1.6776,1.6811,1.6846,1.6885,1.6924,1.6941,1.6961,1.6982,1.7024,1.7037,1.7023,1.7078,1.708,1.7065,1.7061,1.7049,1.7061,1.7067,1.7067,1.7068,0,1.6486,1.6529,1.6576,1.664,1.6656,1.6681,1.6733,1.6765,1.6817,1.6841,1.6877,1.691,1.6949,1.6959,1.7016,1.7005,1.7031,1.7056,1.7057,1.7065,1.7074,1.7071,1.7066,1.7069,1.7072,1.7071,1.7071,0,1.6453,1.6522,1.6561,1.6585,1.6659,1.6677,1.6709,1.676,1.6789,1.6835,1.6855,1.6904,1.6931,1.697,1.7016,1.7018,1.707,1.7082,1.7094,1.7093,1.7103,1.7102,1.7104,1.7116,1.7116,1.7116,1.7116,0,1.6448,1.6476,1.6548,1.6571,1.6606,1.6656,1.6689,1.6725,1.6772,1.6805,1.6846,1.6877,1.6936,1.6975,1.7011,1.7055,1.7067,1.709,1.7099,1.7087,1.7084,1.7105,1.7106,1.7117,1.7116,1.7116,1.7116,0,1.6416,1.6465,1.6511,1.6579,1.6597,1.6619,1.6679,1.6705,1.6744,1.6786,1.6799,1.686,1.6908,1.6959,1.7024,1.7049,1.7093,1.7105,1.7075,1.7081,1.7091,1.709,1.7107,1.7114,1.7119,1.7119,1.7119,0,1.6411,1.6434,1.6506,1.6531,1.6563,1.6603,1.6633,1.6685,1.6716,1.6779,1.6799,1.6851,1.6895,1.6971,1.7022,1.7074,1.7089,1.7092,1.7097,1.7086,1.7093,1.7092,1.7096,1.709,1.709,1.7089,1.7089,0,1.6396,1.6421,1.6462,1.6515,1.655,1.6593,1.6638,1.6657,1.6719,1.6751,1.6802,1.6837,1.6906,1.6958,1.7017,1.7052,1.7082,1.7088,1.7093,1.7081,1.7064,1.7077,1.7072,1.7087,1.7087,1.7087,1.7087,1.7087,1.6379,1.6404,1.6459,1.6506,1.6546,1.6588,1.6618,1.6661,1.6704,1.6764,1.6793,1.6845,1.6901,1.6983,1.7019,1.7062,1.707,1.7077,1.708,1.7081,1.708,1.7057,1.7072,1.7072,1.7072,1.7073,1.7073,0,1.637,1.6409,1.6451,1.6514,1.6552,1.6577,1.663,1.6661,1.6706,1.6755,1.6799,1.686,1.6912,1.6969,1.7026,1.705,1.7065,1.7063,1.7062,1.7071,1.7067,1.7058,1.705,1.705,1.705,1.705,1.705,1.705,1.6369,1.6413,1.6444,1.651,1.6549,1.6601,1.6629,1.667,1.671,1.6776,1.682,1.6857,1.6911,1.6973,1.7023,1.7039,1.7059,1.7053,1.7073,1.7069,1.707,1.7072,1.7064,1.7056,1.7056,1.7073,1.7073,1.7073]}]]